Location: Владивосток
(43.1151°N, 131.8856°E)
Time: 11:56:22
(UTC+10:00)

NOAA 19 - Pass Details

Date: 05 July 2022
Orbit: 840 x 861 km, 99.1° (Epoch: 17 August)

Event Time Altitude Azimuth Distance (km) Brightness Sun altitude
Rises 21:38:51 0° 205° (SSW) 3,415 8.2 -7.2°
Reaches altitude 10° 21:41:52 10° 221° (SW) 2,480 7.7 -7.6°
Maximum altitude 21:45:48 20° 267° (W) 1,874 7.7 -8.2°
Drops below altitude 10° 21:49:47 10° 314° (NW) 2,483 9.4 -8.7°
Sets 21:52:49 0° 331° (NNW) 3,420 10.0 -9.1°
